HELLAS-SAT 4 & SGS-1 (44034 NORAD) Tracking and Keplerian Element Data

This shows tracking and keplerian element data for the satellite.

Feedback or suggestion? Click here.




ElementValue
Catalog44034
NameHELLAS-SAT 4 & SGS-1
Epoch Orbit1006
Epoch Day269.9275762
Epoch Year2021
RAAN128.8898
Inclination0.0631
Eccentricity0.0006155
Argument of Perigee33.6287
Mean Anonmoly216.3733
Mean Motion1.00271816
Decay Rate1.51E-06
L11 44034U 19007A 21269.92757620 .00000151 00000-0 00000-0 0 9997
L22 44034 0.0631 128.8898 0006155 33.6287 216.3733 1.00271816 10065

Live tracking and technical data element details for HELLAS-SAT 4 & SGS-1 (NORAD 44034). HELLAS-SAT 4 & SGS-1 can be tracked NOW for your location showing map with azimuth and elevation plus other details from your city location.

Track the satellite on the map from your city or location and see movement details for azimuth, elevation, latitude, longitude, range, height, and movement on the map or in text.







IsCatalogInMostPopularTable: catalog: 44034, numindb: 538
Update: records affected: 1



GetName: 44034 HELLAS-SAT 4 & SGS-1

Hit Count: updated at: Tue, 28 Sep 2021 16:15:40 GMT